CW3996 Weather Reports


Display with metric or nautical units.
time (UTC)temp
F
wind
direction
speed
MPH
gust
MPH
rain 1hr
in
rain 24hr
in
rain mn
in
humidity
%
barometer
mb
20260902074714 71 150 7.0 14.0 0.00 0.00 0.00 29 1016.1
20260902074249 71 162 8.0 14.0 0.00 0.00 0.00 30 1016.0
20260902073722 71 182 6.0 13.0 0.00 0.00 0.00 29 1016.1
20260902073216 70 165 6.0 14.0 0.00 0.00 0.00 30 1016.1
20260902072731 70 183 9.0 14.0 0.00 0.00 0.00 29 1016.0
20260902072245 70 163 7.0 13.0 0.00 0.00 0.00 29 1016.1
20260902071718 71 197 6.0 13.0 0.00 0.00 0.00 29 1016.1
20260902071232 71 198 9.0 15.0 0.00 0.00 0.00 28 1016.1
20260902070730 71 145 8.0 15.0 0.00 0.00 0.00 27 1016.1
20260902070225 72 169 8.0 18.0 0.00 0.00 0.00 27 1016.2
20260902065719 72 171 8.0 18.0 0.00 0.00 0.00 27 1016.2
20260902065232 71 160 8.0 15.0 0.00 0.00 0.00 27 1016.3
20260902064746 71 187 6.0 11.0 0.00 0.00 0.00 27 1016.2
20260902064239 70 186 7.0 12.0 0.00 0.00 0.00 27 1016.2
20260902063732 71 191 7.0 12.0 0.00 0.00 0.00 27 1016.2
20260902063226 71 154 8.0 12.0 0.00 0.00 0.00 27 1016.2
20260902062719 71 159 8.0 12.0 0.00 0.00 0.00 26 1016.3
20260902062217 71 178 7.0 12.0 0.00 0.00 0.00 27 1016.2
20260902061751 71 185 9.0 13.0 0.00 0.00 0.00 28 1016.2
20260902061304 71 188 8.0 13.0 0.00 0.00 0.00 28 1016.2
20260902060716 71 192 8.0 13.0 0.00 0.00 0.00 28 1016.2
20260902060232 71 193 8.0 18.0 0.00 0.00 0.00 27 1016.2
20260902055725 71 203 9.0 18.0 0.00 0.00 0.00 27 1016.3
20260902055223 71 188 7.0 17.0 0.00 0.00 0.00 27 1016.3
20260902054717 71 200 8.0 17.0 0.00 0.00 0.00 27 1016.3
20260902054231 71 198 11.0 19.0 0.00 0.00 0.00 27 1016.4
20260902053724 72 169 9.0 19.0 0.00 0.00 0.00 27 1016.4
20260902053218 72 187 11.0 23.0 0.00 0.00 0.00 26 1016.3
20260902052731 72 157 10.0 23.0 0.00 0.00 0.00 27 1016.4
20260902052226 72 142 10.0 23.0 0.00 0.00 0.00 27 1016.4
20260902051719 72 190 10.0 16.0 0.00 0.00 0.00 27 1016.4
20260902051218 71 186 8.0 16.0 0.00 0.00 0.00 28 1016.4
20260902050731 71 182 7.0 16.0 0.00 0.00 0.00 27 1016.5
20260902050247 72 188 9.0 18.0 0.00 0.00 0.00 28 1016.4
20260902045719 72 165 9.0 19.0 0.00 0.00 0.00 27 1016.4
20260902045214 72 208 10.0 19.0 0.00 0.00 0.00 27 1016.4
20260902044727 72 158 9.0 18.0 0.00 0.00 0.00 27 1016.4
20260902044222 72 179 10.0 25.0 0.00 0.00 0.00 27 1016.4
20260902043715 72 179 10.0 25.0 0.00 0.00 0.00 27 1016.4
20260902043213 72 195 10.0 17.0 0.00 0.00 0.00 27 1016.4
20260902042747 72 227 9.0 18.0 0.00 0.00 0.00 27 1016.3
20260902042220 72 198 11.0 18.0 0.00 0.00 0.00 27 1016.2
20260902041713 72 175 10.0 16.0 0.00 0.00 0.00 28 1016.1
20260902041248 73 180 10.0 17.0 0.00 0.00 0.00 27 1016.1
20260902040720 72 144 9.0 14.0 0.00 0.00 0.00 27 1016.2
20260902040216 72 187 9.0 16.0 0.00 0.00 0.00 28 1016.0
20260902035730 73 196 9.0 16.0 0.00 0.00 0.00 27 1016.0
20260902035224 72 192 9.0 18.0 0.00 0.00 0.00 27 1016.0
20260902034716 72 181 8.0 18.0 0.00 0.00 0.00 28 1016.0
20260902034214 72 197 9.0 17.0 0.00 0.00 0.00 28 1015.9
20260902033748 72 186 8.0 13.0 0.00 0.00 0.00 28 1015.9
20260902033241 73 198 7.0 14.0 0.00 0.00 0.00 28 1015.8
20260902032715 73 169 8.0 17.0 0.00 0.00 0.00 29 1015.7
20260902032229 73 206 9.0 17.0 0.00 0.00 0.00 28 1015.8
20260902031723 73 182 7.0 16.0 0.00 0.00 0.00 27 1015.6
20260902031217 73 169 8.0 16.0 0.00 0.00 0.00 27 1015.5
20260902030731 73 190 7.0 13.0 0.00 0.00 0.00 27 1015.4
20260902030246 73 174 8.0 13.0 0.00 0.00 0.00 27 1015.4
20260902025722 74 175 8.0 13.0 0.00 0.05 0.00 27 1015.3
20260902025216 74 186 7.0 13.0 0.00 0.05 0.00 27 1015.2
20260902024730 74 186 8.0 14.0 0.00 0.05 0.00 26 1015.2
20260902024224 74 200 9.0 18.0 0.00 0.05 0.00 26 1015.2
20260902023718 74 199 10.0 18.0 0.00 0.05 0.00 26 1015.2
20260902023232 74 206 9.0 14.0 0.00 0.05 0.00 26 1015.2
20260902022726 74 189 8.0 14.0 0.00 0.05 0.00 26 1015.1
20260902022220 75 196 9.0 15.0 0.00 0.05 0.00 25 1015.1
20260902021717 75 202 9.0 15.0 0.00 0.05 0.00 26 1015.2
20260902021232 75 207 10.0 15.0 0.00 0.05 0.00 25 1015.0
20260902020725 75 193 8.0 16.0 0.00 0.05 0.00 25 1015.0
20260902020221 75 199 9.0 16.0 0.00 0.05 0.00 25 1015.0
20260902015714 76 205 10.0 17.0 0.00 0.05 0.00 24 1015.0
20260902015228 76 195 10.0 17.0 0.00 0.05 0.00 25 1015.0
20260902014721 76 209 8.0 17.0 0.00 0.05 0.00 25 1015.0
20260902014215 76 206 11.0 15.0 0.00 0.05 0.00 24 1014.9
20260902013713 77 214 10.0 15.0 0.00 0.05 0.00 24 1015.0
20260902013227 77 221 9.0 19.0 0.00 0.05 0.00 23 1015.0
20260902012740 78 220 11.0 19.0 0.00 0.05 0.00 23 1015.0
20260902012213 78 202 11.0 20.0 0.00 0.05 0.00 23 1015.0
20260902011728 78 208 12.0 20.0 0.00 0.05 0.00 22 1015.0
20260902011222 79 223 12.0 20.0 0.00 0.05 0.00 22 1015.0
20260902010715 79 227 13.0 20.0 0.00 0.05 0.00 21 1015.1
20260902010251 79 219 11.0 19.0 0.00 0.05 0.00 21 1015.1
20260902005723 80 234 13.0 23.0 0.00 0.05 0.00 21 1015.2
20260902005221 80 227 11.0 23.0 0.00 0.05 0.00 22 1015.2
20260902004715 80 360 15.0 24.0 0.00 0.05 0.00 20 1015.2
20260902004249 80 202 13.0 25.0 0.00 0.05 0.00 20 1015.2
20260902003722 80 209 12.0 25.0 0.00 0.05 0.00 19 1015.2
20260902003216 81 225 15.0 24.0 0.00 0.05 0.00 18 1015.2
20260902002730 81 175 11.0 21.0 0.00 0.05 0.00 19 1015.2
20260902002224 81 202 12.0 21.0 0.00 0.05 0.00 18 1015.2
20260902001718 81 218 10.0 19.0 0.00 0.05 0.00 19 1015.2
20260902001218 81 217 11.0 20.0 0.00 0.05 0.00 21 1015.4
20260902000732 81 194 14.0 23.0 0.00 0.05 0.00 21 1015.4
20260902000226 81 214 14.0 23.0 0.00 0.05 0.00 21 1015.5
20260901235719 81 209 15.0 23.0 0.00 0.10 0.00 20 1015.4
20260901235233 81 193 16.0 25.0 0.00 0.10 0.00 22 1015.4
20260901234727 81 223 19.0 25.0 0.00 0.10 0.00 22 1015.5
20260901234221 81 210 16.0 26.0 0.00 0.10 0.00 21 1015.5
20260901233719 81 188 17.0 26.0 0.00 0.10 0.00 22 1015.6
20260901233233 81 200 15.0 25.0 0.00 0.10 0.00 20 1015.6
20260901232726 81 209 17.0 25.0 0.00 0.10 0.00 21 1015.7
20260901232221 81 184 17.0 25.0 0.00 0.10 0.00 21 1015.6
20260901231715 82 214 18.0 27.0 0.00 0.10 0.00 21 1015.8
20260901231230 82 200 12.0 27.0 0.00 0.10 0.00 25 1015.9
20260901230744 82 184 15.0 25.0 0.00 0.10 0.00 25 1015.8
20260901230218 82 205 13.0 22.0 0.00 0.10 0.00 25 1015.9
20260901225715 82 200 17.0 22.0 0.00 0.12 0.00 25 1015.9
20260901225230 81 212 9.0 22.0 0.00 0.12 0.00 27 1016.0
20260901224723 80 244 11.0 20.0 0.00 0.12 0.00 27 1016.1
20260901224217 81 213 13.0 20.0 0.00 0.12 0.00 26 1016.1
20260901223731 81 233 10.0 20.0 0.00 0.12 0.00 28 1016.2
20260901223225 81 217 13.0 24.0 0.00 0.12 0.00 28 1016.2
20260901222718 81 209 17.0 24.0 0.00 0.12 0.00 28 1016.4
20260901222233 80 208 12.0 21.0 0.00 0.12 0.00 27 1016.4
20260901221726 82 229 14.0 21.0 0.00 0.12 0.00 26 1016.5
20260901221224 82 216 14.0 19.0 0.00 0.12 0.00 28 1016.5
20260901220717 82 246 13.0 18.0 0.00 0.12 0.00 28 1016.6
20260901220233 81 209 8.0 17.0 0.00 0.12 0.00 30 1016.6
20260901215747 81 236 10.0 17.0 0.00 0.34 0.00 30 1016.7
20260901215221 79 224 10.0 16.0 0.00 0.34 0.00 31 1016.7
20260901214714 77 223 10.0 15.0 0.00 0.34 0.00 32 1016.9
20260901214228 77 219 8.0 18.0 0.00 0.34 0.00 31 1016.9
20260901213722 78 196 10.0 18.0 0.00 0.34 0.00 29 1017.0
20260901213221 79 195 8.0 13.0 0.00 0.34 0.00 30 1017.0
20260901212713 78 205 10.0 18.0 0.00 0.34 0.00 31 1017.1
20260901212227 80 189 11.0 18.0 0.00 0.34 0.00 30 1017.2
20260901211721 79 213 10.0 16.0 0.00 0.34 0.00 32 1017.3
20260901211215 79 215 9.0 21.0 0.00 0.34 0.00 31 1017.3
20260901210729 79 169 12.0 21.0 0.00 0.34 0.00 31 1017.4
20260901210225 78 208 7.0 15.0 0.00 0.34 0.00 36 1017.6
20260901205718 77 159 8.0 15.0 0.00 0.48 0.00 32 1017.6
20260901205216 79 129 6.0 13.0 0.00 0.48 0.00 31 1017.6
20260901204730 80 200 5.0 18.0 0.00 0.48 0.00 32 1017.8
20260901204244 80 207 11.0 18.0 0.00 0.48 0.00 31 1017.9
20260901203717 79 192 11.0 19.0 0.00 0.48 0.00 33 1017.9
20260901203230 79 225 11.0 17.0 0.00 0.48 0.00 34 1017.9
20260901202724 80 205 8.0 17.0 0.00 0.48 0.00 30 1017.9
20260901202217 79 218 8.0 12.0 0.00 0.48 0.00 33 1017.9
20260901201732 78 198 6.0 14.0 0.00 0.48 0.00 35 1018.1
20260901201231 78 202 7.0 15.0 0.00 0.48 0.00 33 1018.3
20260901200745 78 178 9.0 15.0 0.00 0.48 0.00 36 1018.3
20260901200220 78 192 12.0 15.0 0.00 0.48 0.00 34 1018.3
20260901195714 78 210 9.0 18.0 0.00 0.48 0.00 36 1018.4
20260901195228 77 180 7.0 18.0 0.00 0.48 0.00 36 1018.5
20260901194719 77 194 9.0 18.0 0.00 0.48 0.00 38 1018.6
20260901194213 78 216 9.0 17.0 0.00 0.48 0.00 37 1018.7
20260901193747 77 205 11.0 19.0 0.00 0.48 0.00 35 1018.7
20260901193221 77 198 11.0 19.0 0.00 0.48 0.00 36 1018.8
20260901192718 76 197 12.0 21.0 0.00 0.48 0.00 37 1019.0
20260901192233 77 213 11.0 19.0 0.00 0.48 0.00 34 1019.0
20260901191725 78 235 12.0 17.0 0.00 0.48 0.00 36 1019.0
20260901174235 73 247 4.0 10.0 0.00 0.48 0.00 44 1019.7
20260901173728 74 245 5.0 13.0 0.00 0.48 0.00 41 1019.7
20260901173223 74 256 6.0 13.0 0.00 0.48 0.00 44 1019.8
20260901172715 73 145 4.0 7.0 0.00 0.48 0.00 45 1019.8
20260901172249 73 130 2.0 8.0 0.00 0.48 0.00 48 1019.8
20260901171726 73 126 4.0 8.0 0.00 0.48 0.00 46 1019.8
20260901171220 72 126 1.0 4.0 0.00 0.48 0.00 44 1019.8
20260901170714 71 126 1.0 5.0 0.00 0.48 0.00 47 1019.8
20260901170229 70 126 3.0 5.0 0.00 0.48 0.00 49 1019.8
20260901165723 70 126 3.0 5.0 0.00 0.48 0.00 51 1019.8
20260901165217 68 126 1.0 5.0 0.00 0.48 0.00 51 1019.8
20260901164730 68 127 4.0 8.0 0.00 0.48 0.00 50 1019.9
20260901164227 67 126 4.0 8.0 0.00 0.48 0.00 53 1019.8
20260901163720 67 126 5.0 8.0 0.00 0.48 0.00 50 1019.8
20260901163215 68 126 5.0 8.0 0.00 0.48 0.00 51 1019.8
20260901162728 67 152 4.0 7.0 0.00 0.48 0.00 51 1019.9
20260901162222 67 158 3.0 5.0 0.00 0.48 0.00 51 1019.9
20260901161715 66 159 2.0 5.0 0.00 0.48 0.00 50 1019.8
20260901161230 66 159 2.0 5.0 0.00 0.48 0.00 50 1019.8
20260901160723 65 159 1.0 5.0 0.00 0.48 0.00 54 1019.8
20260901160239 64 158 0.0 0.0 0.00 0.48 0.00 56 1019.8
20260901155715 64 158 0.0 0.0 0.00 0.48 0.00 55 1019.8
20260901155229 64 158 0.0 0.0 0.00 0.48 0.00 55 1019.8
20260901154744 64 158 0.0 2.0 0.00 0.48 0.00 55 1019.8
20260901154217 64 158 0.0 2.0 0.00 0.48 0.00 53 1019.9
20260901153751 64 158 1.0 3.0 0.00 0.48 0.00 54 1019.8
20260901153244 63 158 1.0 3.0 0.00 0.48 0.00 53 1019.8
20260901152716 63 158 2.0 6.0 0.00 0.48 0.00 56 1019.8
20260901152251 63 158 3.0 6.0 0.00 0.48 0.00 58 1020.0
20260901151723 62 158 4.0 6.0 0.00 0.48 0.00 59 1020.0
20260901151238 62 158 2.0 3.0 0.00 0.48 0.00 59 1020.0
20260901150714 61 158 0.0 0.0 0.00 0.48 0.00 58 1020.1
20260901150230 61 158 0.0 0.0 0.00 0.48 0.00 58 1020.0
20260901145724 61 158 0.0 2.0 0.00 0.48 0.00 58 1020.0
20260901145217 61 158 0.0 2.0 0.00 0.48 0.00 59 1019.9
20260901144731 61 158 0.0 2.0 0.00 0.48 0.00 60 1020.0
20260901144225 60 158 0.0 2.0 0.00 0.48 0.00 62 1019.9
20260901143719 60 158 0.0 2.0 0.00 0.48 0.00 65 1019.9
20260901143213 59 158 0.0 2.0 0.00 0.48 0.00 66 1019.8
20260901142731 59 158 1.0 2.0 0.00 0.48 0.00 66 1019.8
20260901142225 59 158 0.0 2.0 0.00 0.48 0.00 65 1019.7
20260901141719 58 158 1.0 2.0 0.00 0.48 0.00 67 1019.7
20260901141213 58 158 0.0 2.0 0.00 0.48 0.00 66 1019.6
20260901140727 58 158 0.0 3.0 0.00 0.48 0.00 66 1019.5
20260901140222 57 158 2.0 3.0 0.00 0.48 0.00 66 1019.6
20260901135716 56 158 1.0 3.0 0.00 0.48 0.00 67 1019.6
20260901135214 56 158 1.0 5.0 0.00 0.48 0.00 68 1019.5
20260901134728 55 158 2.0 5.0 0.00 0.48 0.00 68 1019.5
20260901134222 55 158 3.0 5.0 0.00 0.48 0.00 68 1019.5
20260901133716 55 158 2.0 5.0 0.00 0.48 0.00 67 1019.5
20260901133229 55 158 3.0 5.0 0.00 0.48 0.00 67 1019.5
20260901132723 55 5 1.0 5.0 0.00 0.48 0.00 67 1019.5
20260901132217 55 62 4.0 6.0 0.00 0.48 0.00 67 1019.4
20260901131731 55 62 4.0 6.0 0.00 0.48 0.00 68 1019.3
20260901131229 54 62 4.0 6.0 0.00 0.48 0.00 68 1019.3
20260901130743 54 62 4.0 6.0 0.00 0.48 0.00 69 1019.3
20260901130217 54 59 3.0 5.0 0.00 0.48 0.00 69 1019.1
20260901125732 54 59 3.0 4.0 0.00 0.48 0.00 69 1019.1
20260901125225 53 59 2.0 3.0 0.00 0.48 0.00 69 1019.1
20260901124719 54 59 2.0 3.0 0.00 0.48 0.00 69 1019.1
20260901124213 54 59 1.0 4.0 0.00 0.48 0.00 68 1019.0
20260901123726 53 59 2.0 4.0 0.00 0.48 0.00 69 1019.1
20260901123221 54 59 0.0 4.0 0.00 0.48 0.00 70 1018.9
20260901122718 53 59 2.0 4.0 0.00 0.48 0.00 70 1018.9
20260901122232 53 59 3.0 4.0 0.00 0.48 0.00 70 1019.0
20260901121727 53 59 1.0 2.0 0.00 0.48 0.00 69 1019.0
20260901121222 53 60 0.0 2.0 0.00 0.48 0.00 69 1019.0
20260901120735 54 60 0.0 3.0 0.00 0.48 0.00 68 1019.0
20260901120230 54 59 1.0 4.0 0.00 0.48 0.00 68 1019.0
20260901115723 54 59 3.0 4.0 0.00 0.48 0.00 68 1018.9
20260901115217 54 60 3.0 4.0 0.00 0.48 0.00 67 1018.9
20260901114714 55 59 3.0 6.0 0.00 0.48 0.00 66 1018.8
20260901114229 55 59 2.0 6.0 0.00 0.48 0.00 66 1018.7
20260901113743 55 59 4.0 6.0 0.00 0.48 0.00 66 1018.7
20260901113216 55 59 4.0 6.0 0.00 0.48 0.00 67 1018.6
20260901112750 55 59 4.0 6.0 0.00 0.48 0.00 67 1018.7
20260901112223 55 59 3.0 5.0 0.00 0.48 0.00 67 1018.7
20260901111716 54 60 4.0 5.0 0.00 0.48 0.00 68 1018.8
20260901111230 54 59 3.0 5.0 0.00 0.48 0.00 68 1018.8
20260901110724 54 59 3.0 5.0 0.00 0.48 0.00 68 1018.9
20260901110224 54 59 3.0 5.0 0.00 0.48 0.00 69 1019.0
20260901105717 54 59 0.0 4.0 0.00 0.48 0.00 69 1019.0
20260901105252 54 59 3.0 4.0 0.00 0.48 0.00 69 1019.0
20260901104724 54 59 0.0 5.0 0.00 0.48 0.00 69 1019.0
20260901104219 53 59 2.0 5.0 0.00 0.48 0.00 70 1019.0
20260901103713 54 59 1.0 4.0 0.00 0.48 0.00 69 1019.0
20260901103227 54 59 3.0 6.0 0.00 0.48 0.00 70 1019.0
20260901102721 54 59 3.0 6.0 0.00 0.48 0.00 70 1019.0
20260901102239 53 59 4.0 6.0 0.00 0.48 0.00 70 1019.0
20260901101732 53 59 3.0 5.0 0.00 0.48 0.00 70 1019.1
20260901101246 53 59 3.0 6.0 0.00 0.48 0.00 70 1019.0
20260901100718 53 59 2.0 6.0 0.00 0.48 0.00 70 1019.0
20260901100214 53 59 2.0 6.0 0.00 0.48 0.00 71 1019.0
20260901095728 53 59 3.0 5.0 0.00 0.48 0.00 71 1018.9
20260901095222 53 59 3.0 5.0 0.00 0.48 0.00 71 1019.0
20260901094716 53 59 4.0 5.0 0.00 0.48 0.00 71 1019.0
20260901094214 53 59 4.0 5.0 0.00 0.48 0.00 71 1019.0
20260901093727 53 59 3.0 6.0 0.00 0.48 0.00 71 1019.1
20260901093222 53 59 2.0 6.0 0.00 0.48 0.00 71 1019.1
20260901092715 53 57 5.0 6.0 0.00 0.48 0.00 71 1019.1
20260901092230 53 57 4.0 4.0 0.00 0.48 0.00 71 1019.2
20260901091723 53 57 2.0 5.0 0.00 0.48 0.00 70 1019.3
20260901091218 53 57 3.0 6.0 0.00 0.48 0.00 71 1019.3
20260901090731 54 57 4.0 6.0 0.00 0.48 0.00 71 1019.2
20260901090247 53 57 4.0 6.0 0.00 0.48 0.00 71 1019.3
20260901085723 53 56 3.0 4.0 0.00 0.48 0.00 72 1019.2
20260901085218 53 56 2.0 3.0 0.00 0.48 0.00 72 1019.2
20260901084732 53 56 0.0 3.0 0.00 0.48 0.00 70 1019.2
20260901084226 54 56 3.0 3.0 0.00 0.48 0.00 70 1019.2
20260901083720 54 56 2.0 3.0 0.00 0.48 0.00 71 1019.2
20260901083214 54 56 3.0 4.0 0.00 0.48 0.00 71 1019.3
20260901082727 53 56 2.0 4.0 0.00 0.48 0.00 71 1019.3
20260901082226 54 56 2.0 4.0 0.00 0.48 0.00 71 1019.2
20260901081719 54 56 2.0 4.0 0.00 0.48 0.00 71 1019.2
20260901081213 53 56 3.0 4.0 0.00 0.48 0.00 72 1019.3
20260901080729 53 56 2.0 4.0 0.00 0.48 0.00 72 1019.3
20260901080224 53 56 1.0 3.0 0.00 0.48 0.00 72 1019.5
20260901075717 53 56 1.0 3.0 0.00 0.48 0.00 72 1019.4
20260901075231 53 56 1.0 3.0 0.00 0.48 0.00 72 1019.5